CAPE
1087 924 898 562 452 627 466 470 452 433 278 257 92 0 0 7 5 0 0 0 0 18 7 2 10 19 19 14 11 0 1 0 0 16 212 226 400 360 567 318 585 407 375 49 180 131 7 63 50 83 121 100 29 11 11 1 0 0 0 0 0 0 0
674 738 775 671 891 701 507 468 518 492 359 297 214 0 0 0 7 0 0 0 0 7 46 0 2 6 9 11 8 1 0 0 2 102 0 8 12 384 462 286 334 443 428 361 350 176 112 2 71 60 69 94 72 29 26 6 0 0 0 0 0 0 0
437 537 432 435 447 436 448 558 584 577 580 616 546 369 318 0 0 0 0 0 0 72 60 0 0 0 0 0 3 8 1 0 0 5 157 2 7 222 446 407 373 410 487 369 237 253 179 128 121 16 14 63 37 18 16 0 0 0 0 0 0 0 0
676 644 654 593 140 234 462 517 498 602 593 667 624 494 380 261 2 95 1 0 0 100 26 0 0 0 0 0 0 0 0 0 0 0 8 2 0 2 382 521 561 500 482 516 325 356 285 244 13 23 14 10 14 4 2 2 0 0 0 0 0 0 0
617 571 592 625 590 572 575 531 505 531 683 678 610 577 426 324 308 81 107 0 0 0 0 0 0 0 0 0 0 0 0 0 0 35 10 0 0 0 288 343 392 400 428 493 514 450 411 404 174 20 5 0 2 4 3 2 0 0 0 0 0 0 0
784 597 534 537 666 660 568 478 422 458 612 600 629 557 482 377 324 209 0 0 0 2 32 0 0 0 0 0 0 0 0 0 2 6 19 0 0 0 28 308 324 310 388 511 499 495 491 467 249 67 27 6 7 4 3 0 0 0 0 0 0 0 0
922 734 536 459 515 540 492 474 523 615 645 639 643 534 462 392 328 277 0 0 0 0 0 0 0 0 0 0 0 0 0 0 3 5 6 2 0 0 0 27 293 345 382 683 627 561 508 437 268 54 29 3 1 3 1 0 0 0 0 0 0 0 0
632 900 748 383 256 252 280 312 374 396 593 692 641 475 405 414 381 302 0 0 0 0 0 0 0 0 0 0 0 0 0 0 0 0 1 3 0 0 0 3 255 222 442 586 616 565 546 495 204 8 0 0 0 0 0 0 0 0 0 0 0 0 0
483 610 1044 614 160 91 75 68 25 84 404 626 555 403 387 396 388 312 0 0 0 0 0 0 0 0 0 0 0 0 0 6 0 0 0 3 13 16 0 0 197 44 426 518 513 450 433 424 284 3 0 0 0 0 0 0 0 0 0 0 0 0 0
560 725 701 822 763 395 83 0 1 49 73 532 386 200 197 362 420 404 136 0 0 0 0 0 0 0 0 0 0 0 0 0 0 13 6 1 6 10 23 75 112 62 408 603 571 392 314 367 306 54 50 48 4 0 0 0 0 0 0 0 0 0 0
328 515 548 927 855 635 322 0 0 32 4 65 94 0 0 262 382 752 233 0 0 0 0 0 0 0 0 0 0 0 0 0 0 0 4 0 0 12 16 1 0 212 306 422 609 540 322 313 272 0 62 22 0 0 0 1 3 0 0 1 2 2 0
405 623 787 827 881 853 778 402 68 19 0 0 131 0 0 295 393 447 299 0 0 0 0 0 0 0 0 0 0 0 0 0 0 0 0 0 0 3 4 0 0 0 104 390 550 600 352 277 184 39 88 44 0 0 0 0 2 0 0 4 7 4 2
33 47 4 0 0 326 524 625 501 267 0 0 0 51 0 240 220 239 198 0 0 0 0 0 0 0 0 0 0 0 0 0 0 0 0 0 0 0 0 0 0 0 59 361 540 620 491 421 297 237 225 272 113 0 0 0 0 5 3 8 13 8 1
19 7 4 199 398 469 535 554 483 458 466 359 100 0 77 159 0 0 0 0 0 0 0 0 0 0 0 0 0 0 0 0 0 0 0 0 0 0 0 0 0 0 0 118 329 489 613 517 494 470 398 285 184 173 73 9 5 14 13 8 8 2 0
1 0 1 328 334 334 337 385 395 418 381 336 293 241 250 165 1 0 0 0 0 0 0 0 0 0 0 0 0 0 0 0 0 0 0 0 0 0 0 0 0 0 0 0 0 15 524 600 548 524 555 484 381 278 211 134 100 80 56 10 2 0 0
0 1 1 329 408 446 473 462 471 488 452 382 155 115 229 194 4 0 0 0 0 0 0 0 0 0 0 0 0 0 0 0 0 0 0 0 0 0 0 0 0 0 0 0 0 0 0 499 540 522 560 535 465 308 162 132 144 137 63 5 0 0 0
1 0 0 85 394 408 526 572 595 616 590 458 473 373 278 231 8 0 0 0 0 0 0 0 0 0 0 0 0 0 0 0 0 0 0 0 0 0 0 0 0 0 0 0 0 0 0 114 462 442 564 619 409 254 210 153 179 102 5 0 0 0 0
14 20 21 314 416 527 522 559 640 675 651 640 693 532 315 235 0 0 0 0 0 0 0 0 0 0 0 0 0 0 0 0 0 0 0 0 0 0 0 0 0 0 0 0 0 0 0 0 0 377 500 550 403 243 192 159 123 7 0 0 0 0 0
18 26 44 111 322 454 537 646 716 722 750 765 696 558 372 292 239 191 140 17 0 0 0 0 0 0 0 0 0 0 0 0 0 0 0 0 0 0 0 0 0 0 0 0 0 0 0 0 0 365 490 276 313 209 190 165 72 0 0 0 0 0 0
125 140 171 177 229 304 385 460 615 715 713 760 717 558 462 378 307 248 157 57 0 40 0 0 0 0 0 0 0 0 0 0 0 0 0 0 0 0 0 0 0 0 0 0 0 0 0 0 0 272 484 53 222 213 196 102 43 2 0 0 0 0 0
300 312 315 290 302 315 308 369 444 592 670 664 674 657 560 362 252 206 201 122 61 33 0 0 0 0 0 0 0 0 0 0 0 0 0 0 0 0 0 0 0 0 0 0 0 0 0 0 0 167 243 174 165 154 122 50 13 4 0 0 0 0 0
162 164 333 495 546 554 485 446 465 559 681 696 674 665 595 495 414 251 218 182 41 0 0 0 0 0 0 0 0 0 0 0 0 0 0 0 0 0 0 0 0 0 0 0 0 0 0 0 0 0 21 143 184 135 78 35 8 1 0 0 0 0 0
4 1 23 151 518 835 741 651 604 534 585 680 689 669 572 581 460 286 182 114 4 0 0 0 0 0 0 0 0 0 0 0 0 0 0 0 0 0 0 0 0 0 0 0 0 0 0 0 0 0 0 8 106 137 70 26 2 0 0 0 0 0 0
0 0 0 1 299 740 998 843 794 733 634 631 701 641 504 575 603 394 197 98 94 0 54 0 0 0 0 0 0 0 0 0 0 0 0 0 0 0 0 0 0 0 0 0 0 0 0 0 0 0 0 0 0 37 76 40 9 0 0 0 0 0 0
0 0 0 0 7 378 842 814 820 890 785 662 602 450 343 331 425 370 284 176 75 0 0 0 0 0 0 0 0 0 0 0 0 0 0 0 0 0 0 0 0 0 0 0 0 0 0 0 0 0 0 0 0 2 3 0 0 0 0 0 0 0 0
0 0 0 0 0 50 429 491 552 877 898 755 664 538 379 264 295 242 229 198 116 26 10 0 0 0 0 0 0 0 0 0 0 0 0 0 0 0 0 0 0 0 0 0 0 0 0 0 0 0 0 0 0 0 0 0 0 0 0 0 0 0 0
0 0 0 0 0 0 58 174 288 652 951 825 626 454 372 346 242 308 164 115 196 107 23 2 1 0 0 0 0 0 0 0 0 0 0 0 0 0 0 0 0 0 0 0 0 0 0 0 0 0 0 0 0 0 0 0 0 0 0 0 0 0 0
0 0 0 0 0 0 0 8 59 290 795 874 708 528 431 413 389 347 318 325 263 142 129 8 3 1 0 0 0 0 0 0 0 0 0 0 0 0 0 0 0 0 0 0 0 0 0 0 0 0 0 0 0 0 0 0 0 0 0 0 0 0 0
0 0 0 0 0 0 0 0 4 46 596 720 538 419 378 397 448 430 387 406 409 329 238 53 0 1 2 0 0 0 0 0 0 0 0 0 0 0 0 0 0 0 0 0 0 0 0 0 0 0 0 0 0 0 0 0 0 0 0 0 0 0 0
0 0 0 0 0 0 0 0 0 0 172 528 591 461 395 468 529 508 433 349 317 389 306 173 66 4 1 1 0 0 0 0 0 0 0 0 0 0 0 0 0 0 0 0 0 0 0 0 0 0 0 0 0 0 0 0 0 0 0 0 0 0 0
0 0 0 0 0 0 0 0 0 0 127 263 522 510 446 523 537 512 450 388 322 337 248 261 216 110 0 0 0 0 0 0 0 0 0 0 0 0 0 0 0 0 0 0 0 0 0 0 0 0 0 0 0 0 0 0 0 0 0 0 0 0 0
0 0 0 0 0 0 0 0 0 0 0 256 484 613 543 482 545 555 555 481 413 342 304 258 222 256 54 20 15 0 0 0 0 0 0 0 0 0 0 0 0 0 0 0 0 0 0 0 0 0 0 0 0 0 0 0 0 0 0 0 0 0 0
0 0 0 0 0 0 0 0 0 0 0 0 131 489 554 461 442 492 522 537 357 186 219 236 254 243 233 61 18 9 0 0 0 0 0 0 0 0 0 0 0 0 0 0 0 0 0 0 0 0 0 0 0 0 0 0 0 0 0 0 0 0 0
0 0 0 0 0 0 0 0 0 0 0 0 0 8 5 1 2 98 259 257 252 116 254 306 282 225 190 184 84 27 18 4 0 0 0 0 0 0 0 0 0 0 0 0 0 0 0 0 0 0 0 0 0 0 0 0 0 0 0 0 0 0 0
0 0 0 0 0 0 0 0 0 0 0 0 0 0 0 0 0 0 20 152 109 162 291 374 331 250 168 71 35 32 22 20 1 0 0 0 0 0 0 0 0 0 0 0 0 0 0 0 0 0 0 0 0 0 0 0 0 0 0 0 0 0 0
0 0 0 0 0 0 0 0 0 0 0 0 0 0 0 0 0 0 0 0 0 9 63 273 300 201 180 134 48 73 49 25 16 3 0 0 0 1 0 0 0 0 0 0 0 0 0 0 0 0 0 0 0 0 0 0 0 0 0 0 0 0 0
0 0 0 0 0 0 0 0 0 0 0 0 0 0 0 0 0 0 0 0 0 0 0 14 263 251 177 194 103 65 70 60 29 14 1 0 1 1 0 0 0 0 0 0 0 0 0 0 0 0 0 0 0 0 0 0 0 0 0 0 0 0 0
Wind_Speed
11 10 11 11 13 14 14 12 13 13 14 15 nan nan nan nan nan nan nan nan nan nan nan nan nan nan nan nan nan nan nan nan nan nan 15 17 20 18 21 21 22 26 26 nan 28 29 nan nan nan nan 30 30 nan nan nan nan nan nan nan nan nan nan nan
12 10 11 12 14 15 15 13 14 15 16 16 16 nan nan nan nan nan nan nan nan nan nan nan nan nan nan nan nan nan nan nan nan 18 nan nan nan 19 21 21 22 24 23 24 26 26 28 nan nan nan nan nan nan nan nan nan nan nan nan nan nan nan nan
11 12 14 14 14 15 16 15 15 16 18 17 18 19 20 nan nan nan nan nan nan nan nan nan nan nan nan nan nan nan nan nan nan nan 19 nan nan 18 21 22 22 22 23 23 24 26 26 26 30 nan nan nan nan nan nan nan nan nan nan nan nan nan nan
10 13 14 15 16 17 18 18 18 18 19 20 20 20 22 22 nan nan nan nan nan 16 nan nan nan nan nan nan nan nan nan nan nan nan nan nan nan nan 20 21 22 23 24 25 25 26 27 26 nan nan nan nan nan nan nan nan nan nan nan nan nan nan nan
11 12 14 16 18 20 21 21 20 20 19 21 23 23 23 22 20 nan 17 nan nan nan nan nan nan nan nan nan nan nan nan nan nan nan nan nan nan nan 19 19 20 21 22 24 24 26 27 26 28 nan nan nan nan nan nan nan nan nan nan nan nan nan nan
12 12 13 13 15 18 18 18 18 18 19 21 22 24 22 23 22 21 nan nan nan nan nan nan nan nan nan nan nan nan nan nan nan nan nan nan nan nan nan 19 20 21 21 21 24 24 22 24 25 nan nan nan nan nan nan nan nan nan nan nan nan nan nan
12 17 16 16 17 19 18 16 14 14 16 18 20 21 22 22 22 20 nan nan nan nan nan nan nan nan nan nan nan nan nan nan nan nan nan nan nan nan nan nan 20 20 20 20 21 23 23 24 24 nan nan nan nan nan nan nan nan nan nan nan nan nan nan
19 17 19 21 23 23 22 19 17 16 15 16 19 19 21 23 23 21 nan nan nan nan nan nan nan nan nan nan nan nan nan nan nan nan nan nan nan nan nan nan 20 18 18 18 21 21 22 24 26 nan nan nan nan nan nan nan nan nan nan nan nan nan nan
16 18 20 21 22 nan nan nan nan nan 18 16 16 19 22 23 23 21 nan nan nan nan nan nan nan nan nan nan nan nan nan nan nan nan nan nan nan nan nan nan 20 nan 16 16 19 21 21 22 22 nan nan nan nan nan nan nan nan nan nan nan nan nan nan
14 15 19 19 18 22 nan nan nan nan nan 25 22 15 16 21 23 23 22 nan nan nan nan nan nan nan nan nan nan nan nan nan nan nan nan nan nan nan nan nan 17 nan 14 14 17 20 22 21 16 nan nan nan nan nan nan nan nan nan nan nan nan nan nan
20 19 23 22 22 23 24 nan nan nan nan nan nan nan nan 22 24 25 24 nan nan nan nan nan nan nan nan nan nan nan nan nan nan nan nan nan nan nan nan nan nan 14 14 16 17 19 21 18 14 nan nan nan nan nan nan nan nan nan nan nan nan nan nan
20 21 23 22 23 25 24 24 nan nan nan nan 24 nan nan 25 26 24 24 nan nan nan nan nan nan nan nan nan nan nan nan nan nan nan nan nan nan nan nan nan nan nan 15 17 18 18 15 14 12 nan nan nan nan nan nan nan nan nan nan nan nan nan nan
nan nan nan nan nan 22 24 25 23 24 nan nan nan nan nan 27 26 26 23 nan nan nan nan nan nan nan nan nan nan nan nan nan nan nan nan nan nan nan nan nan nan nan nan 19 19 15 11 8 10 13 14 14 13 nan nan nan nan nan nan nan nan nan nan
nan nan nan 22 22 22 23 23 22 22 25 27 26 nan nan 27 nan nan nan nan nan nan nan nan nan nan nan nan nan nan nan nan nan nan nan nan nan nan nan nan nan nan nan 19 16 12 9 8 9 9 10 11 11 11 nan nan nan nan nan nan nan nan nan
nan nan nan 22 21 20 21 22 22 23 24 25 27 26 27 27 nan nan nan nan nan nan nan nan nan nan nan nan nan nan nan nan nan nan nan nan nan nan nan nan nan nan nan nan nan nan 9 8 8 8 6 9 10 9 7 5 4 nan nan nan nan nan nan
nan nan nan 24 22 20 20 21 22 23 24 24 26 27 26 27 nan nan nan nan nan nan nan nan nan nan nan nan nan nan nan nan nan nan nan nan nan nan nan nan nan nan nan nan nan nan nan 6 5 6 6 6 6 6 4 4 5 3 nan nan nan nan nan
nan nan nan nan 26 24 23 23 23 23 23 25 25 24 24 26 nan nan nan nan nan nan nan nan nan nan nan nan nan nan nan nan nan nan nan nan nan nan nan nan nan nan nan nan nan nan nan 4 5 5 5 3 3 4 4 4 5 5 nan nan nan nan nan
nan nan nan 31 28 27 26 25 25 24 23 23 23 23 23 25 nan nan nan nan nan nan nan nan nan nan nan nan nan nan nan nan nan nan nan nan nan nan nan nan nan nan nan nan nan nan nan nan nan 6 5 4 4 4 3 3 3 nan nan nan nan nan nan
nan nan nan 35 33 30 28 27 25 25 25 23 22 21 22 25 26 25 27 nan nan nan nan nan nan nan nan nan nan nan nan nan nan nan nan nan nan nan nan nan nan nan nan nan nan nan nan nan nan 4 3 5 4 3 2 2 nan nan nan nan nan nan nan
41 42 42 40 37 34 31 29 26 24 25 25 22 20 21 24 25 26 25 nan nan nan nan nan nan nan nan nan nan nan nan nan nan nan nan nan nan nan nan nan nan nan nan nan nan nan nan nan nan 2 3 nan 3 2 3 3 nan nan nan nan nan nan nan
42 43 44 44 42 38 34 31 28 25 25 25 23 20 19 22 24 26 23 21 nan nan nan nan nan nan nan nan nan nan nan nan nan nan nan nan nan nan nan nan nan nan nan nan nan nan nan nan nan 5 6 3 2 2 3 nan nan nan nan nan nan nan nan
44 45 44 45 44 41 37 33 30 26 24 25 25 23 25 24 22 21 21 19 nan nan nan nan nan nan nan nan nan nan nan nan nan nan nan nan nan nan nan nan nan nan nan nan nan nan nan nan nan nan nan 4 1 1 nan nan nan nan nan nan nan nan nan
nan nan nan 45 44 43 41 36 31 27 24 23 24 25 27 24 21 20 19 15 nan nan nan nan nan nan nan nan nan nan nan nan nan nan nan nan nan nan nan nan nan nan nan nan nan nan nan nan nan nan nan nan 2 2 nan nan nan nan nan nan nan nan nan
nan nan nan nan 46 45 43 40 35 29 25 23 23 26 30 28 22 22 21 nan nan nan nan nan nan nan nan nan nan nan nan nan nan nan nan nan nan nan nan nan nan nan nan nan nan nan nan nan nan nan nan nan nan nan nan nan nan nan nan nan nan nan nan
nan nan nan nan nan 47 46 43 39 32 26 22 21 24 28 30 26 22 24 27 nan nan nan nan nan nan nan nan nan nan nan nan nan nan nan nan nan nan nan nan nan nan nan nan nan nan nan nan nan nan nan nan nan nan nan nan nan nan nan nan nan nan nan
nan nan nan nan nan nan 46 44 41 35 28 22 20 21 26 30 29 25 23 25 25 nan nan nan nan nan nan nan nan nan nan nan nan nan nan nan nan nan nan nan nan nan nan nan nan nan nan nan nan nan nan nan nan nan nan nan nan nan nan nan nan nan nan
nan nan nan nan nan nan nan 40 39 37 32 25 20 20 25 29 31 29 26 23 24 26 nan nan nan nan nan nan nan nan nan nan nan nan nan nan nan nan nan nan nan nan nan nan nan nan nan nan nan nan nan nan nan nan nan nan nan nan nan nan nan nan nan
nan nan nan nan nan nan nan nan nan 34 32 28 22 19 23 29 32 30 26 23 23 25 28 nan nan nan nan nan nan nan nan nan nan nan nan nan nan nan nan nan nan nan nan nan nan nan nan nan nan nan nan nan nan nan nan nan nan nan nan nan nan nan nan
nan nan nan nan nan nan nan nan nan nan 28 27 24 21 22 27 32 33 30 28 24 21 23 nan nan nan nan nan nan nan nan nan nan nan nan nan nan nan nan nan nan nan nan nan nan nan nan nan nan nan nan nan nan nan nan nan nan nan nan nan nan nan nan
nan nan nan nan nan nan nan nan nan nan 21 22 24 23 23 26 30 34 33 31 26 20 20 22 nan nan nan nan nan nan nan nan nan nan nan nan nan nan nan nan nan nan nan nan nan nan nan nan nan nan nan nan nan nan nan nan nan nan nan nan nan nan nan
nan nan nan nan nan nan nan nan nan nan 17 17 19 22 23 25 30 34 35 34 31 25 19 18 19 23 nan nan nan nan nan nan nan nan nan nan nan nan nan nan nan nan nan nan nan nan nan nan nan nan nan nan nan nan nan nan nan nan nan nan nan nan nan
nan nan nan nan nan nan nan nan nan nan nan 16 16 20 23 25 28 33 35 34 33 32 26 21 17 19 nan nan nan nan nan nan nan nan nan nan nan nan nan nan nan nan nan nan nan nan nan nan nan nan nan nan nan nan nan nan nan nan nan nan nan nan nan
nan nan nan nan nan nan nan nan nan nan nan nan 16 18 24 27 28 31 34 34 33 33 31 28 24 17 18 nan nan nan nan nan nan nan nan nan nan nan nan nan nan nan nan nan nan nan nan nan nan nan nan nan nan nan nan nan nan nan nan nan nan nan nan
nan nan nan nan nan nan nan nan nan nan nan nan nan nan nan nan nan nan 34 34 31 32 30 29 28 21 15 17 nan nan nan nan nan nan nan nan nan nan nan nan nan nan nan nan nan nan nan nan nan nan nan nan nan nan nan nan nan nan nan nan nan nan nan
nan nan nan nan nan nan nan nan nan nan nan nan nan nan nan nan nan nan nan 35 33 29 28 30 30 23 16 nan nan nan nan nan nan nan nan nan nan nan nan nan nan nan nan nan nan nan nan nan nan nan nan nan nan nan nan nan nan nan nan nan nan nan nan
nan nan nan nan nan nan nan nan nan nan nan nan nan nan nan nan nan nan nan nan nan nan nan 33 29 27 22 19 nan nan nan nan nan nan nan nan nan nan nan nan nan nan nan nan nan nan nan nan nan nan nan nan nan nan nan nan nan nan nan nan nan nan nan
nan nan nan nan nan nan nan nan nan nan nan nan nan nan nan nan nan nan nan nan nan nan nan nan 32 28 25 21 21 nan nan nan nan nan nan nan nan nan nan nan nan nan nan nan nan nan nan nan nan nan nan nan nan nan nan nan nan nan nan nan nan nan nan
Wind_Direction
299 307 302 305 305 298 303 303 299 297 295 296 nan nan nan nan nan nan nan nan nan nan nan nan nan nan nan nan nan nan nan nan nan nan 289 285 293 300 293 290 292 295 298 nan 305 307 nan nan nan nan 296 296 nan nan nan nan nan nan nan nan nan nan nan
306 313 309 302 303 300 301 297 302 304 303 303 301 nan nan nan nan nan nan nan nan nan nan nan nan nan nan nan nan nan nan nan nan 296 nan nan nan 298 295 296 293 292 295 296 300 299 304 nan nan nan nan nan nan nan nan nan nan nan nan nan nan nan nan
310 303 300 305 307 301 306 308 307 305 307 307 302 295 292 nan nan nan nan nan nan nan nan nan nan nan nan nan nan nan nan nan nan nan 298 nan nan 298 299 301 298 296 295 298 300 300 298 301 309 nan nan nan nan nan nan nan nan nan nan nan nan nan nan
320 315 312 315 316 315 318 317 313 313 305 309 296 294 292 288 nan nan nan nan nan 294 nan nan nan nan nan nan nan nan nan nan nan nan nan nan nan nan 293 299 305 308 308 308 312 310 307 307 nan nan nan nan nan nan nan nan nan nan nan nan nan nan nan
328 326 326 328 327 325 323 323 318 307 304 297 292 292 287 287 288 nan 291 nan nan nan nan nan nan nan nan nan nan nan nan nan nan nan nan nan nan nan 295 298 303 306 305 308 312 312 314 316 314 nan nan nan nan nan nan nan nan nan nan nan nan nan nan
329 322 318 322 321 318 313 312 311 313 305 293 296 295 297 291 289 290 nan nan nan nan nan nan nan nan nan nan nan nan nan nan nan nan nan nan nan nan nan 304 306 304 306 307 308 311 308 309 312 nan nan nan nan nan nan nan nan nan nan nan nan nan nan
325 312 299 296 297 297 295 296 299 306 309 308 303 308 310 303 300 298 nan nan nan nan nan nan nan nan nan nan nan nan nan nan nan nan nan nan nan nan nan nan 305 305 307 309 310 311 315 313 317 nan nan nan nan nan nan nan nan nan nan nan nan nan nan
320 313 313 308 304 300 296 293 296 301 309 315 316 317 313 309 308 304 nan nan nan nan nan nan nan nan nan nan nan nan nan nan nan nan nan nan nan nan nan nan 309 309 310 312 315 321 321 322 322 nan nan nan nan nan nan nan nan nan nan nan nan nan nan
313 317 320 315 312 nan nan nan nan nan 304 306 302 308 315 311 308 308 nan nan nan nan nan nan nan nan nan nan nan nan nan nan nan nan nan nan nan nan nan nan 307 nan 311 315 320 321 321 318 320 nan nan nan nan nan nan nan nan nan nan nan nan nan nan
332 330 311 307 318 318 nan nan nan nan nan 286 290 284 295 306 306 306 305 nan nan nan nan nan nan nan nan nan nan nan nan nan nan nan nan nan nan nan nan nan 314 nan 309 310 312 314 316 312 313 nan nan nan nan nan nan nan nan nan nan nan nan nan nan
334 333 323 323 318 317 318 nan nan nan nan nan nan nan nan 304 303 303 302 nan nan nan nan nan nan nan nan nan nan nan nan nan nan nan nan nan nan nan nan nan nan 313 312 312 313 312 315 314 309 nan nan nan nan nan nan nan nan nan nan nan nan nan nan
327 326 319 319 316 316 319 316 nan nan nan nan 296 nan nan 298 294 297 298 nan nan nan nan nan nan nan nan nan nan nan nan nan nan nan nan nan nan nan nan nan nan nan 308 314 308 307 310 308 309 nan nan nan nan nan nan nan nan nan nan nan nan nan nan
nan nan nan nan nan 316 319 318 308 296 nan nan nan nan nan 287 289 292 293 nan nan nan nan nan nan nan nan nan nan nan nan nan nan nan nan nan nan nan nan nan nan nan nan 310 308 309 310 305 304 305 312 318 320 nan nan nan nan nan nan nan nan nan nan
nan nan nan 313 317 320 319 317 313 305 296 299 298 nan nan 285 nan nan nan nan nan nan nan nan nan nan nan nan nan nan nan nan nan nan nan nan nan nan nan nan nan nan nan 304 313 312 311 314 300 304 311 312 314 322 nan nan nan nan nan nan nan nan nan
nan nan nan 309 309 310 309 307 306 300 303 305 307 301 291 289 nan nan nan nan nan nan nan nan nan nan nan nan nan nan nan nan nan nan nan nan nan nan nan nan nan nan nan nan nan nan 318 315 308 311 323 323 328 341 345 314 344 nan nan nan nan nan nan
nan nan nan 305 304 305 303 301 299 301 304 305 307 307 301 288 nan nan nan nan nan nan nan nan nan nan nan nan nan nan nan nan nan nan nan nan nan nan nan nan nan nan nan nan nan nan nan 308 301 326 338 335 344 5 21 352 332 358 nan nan nan nan nan
nan nan nan nan 304 303 301 298 297 297 300 301 305 308 303 291 nan nan nan nan nan nan nan nan nan nan nan nan nan nan nan nan nan nan nan nan nan nan nan nan nan nan nan nan nan nan nan 289 330 337 340 13 33 34 35 29 1 354 nan nan nan nan nan
nan nan nan 301 299 296 294 292 293 296 296 299 302 304 304 295 nan nan nan nan nan nan nan nan nan nan nan nan nan nan nan nan nan nan nan nan nan nan nan nan nan nan nan nan nan nan nan nan nan 341 360 44 62 60 69 37 16 nan nan nan nan nan nan
nan nan nan 301 300 299 295 291 288 287 289 292 291 293 300 301 296 284 273 nan nan nan nan nan nan nan nan nan nan nan nan nan nan nan nan nan nan nan nan nan nan nan nan nan nan nan nan nan nan 344 27 72 93 92 39 53 nan nan nan nan nan nan nan
298 298 298 299 300 299 296 293 289 283 280 282 286 294 299 299 296 288 274 nan nan nan nan nan nan nan nan nan nan nan nan nan nan nan nan nan nan nan nan nan nan nan nan nan nan nan nan nan nan 264 90 nan 91 82 45 35 nan nan nan nan nan nan nan
296 295 295 296 297 298 297 294 291 284 277 276 279 285 291 291 290 289 283 273 nan nan nan nan nan nan nan nan nan nan nan nan nan nan nan nan nan nan nan nan nan nan nan nan nan nan nan nan nan 204 152 99 52 46 53 nan nan nan nan nan nan nan nan
296 294 294 294 294 295 295 295 292 287 278 273 272 275 274 274 274 277 281 281 nan nan nan nan nan nan nan nan nan nan nan nan nan nan nan nan nan nan nan nan nan nan nan nan nan nan nan nan nan nan nan 143 49 8 nan nan nan nan nan nan nan nan nan
nan nan nan 294 296 296 296 295 292 287 282 273 265 264 271 279 285 284 284 276 nan nan nan nan nan nan nan nan nan nan nan nan nan nan nan nan nan nan nan nan nan nan nan nan nan nan nan nan nan nan nan nan 230 256 nan nan nan nan nan nan nan nan nan
nan nan nan nan 295 295 294 294 293 289 282 273 262 258 263 270 274 281 285 nan nan nan nan nan nan nan nan nan nan nan nan nan nan nan nan nan nan nan nan nan nan nan nan nan nan nan nan nan nan nan nan nan nan nan nan nan nan nan nan nan nan nan nan
nan nan nan nan nan 293 293 291 290 288 284 273 260 253 253 262 266 265 275 276 nan nan nan nan nan nan nan nan nan nan nan nan nan nan nan nan nan nan nan nan nan nan nan nan nan nan nan nan nan nan nan nan nan nan nan nan nan nan nan nan nan nan nan
nan nan nan nan nan nan 289 287 286 284 281 276 262 245 241 248 256 258 261 268 269 nan nan nan nan nan nan nan nan nan nan nan nan nan nan nan nan nan nan nan nan nan nan nan nan nan nan nan nan nan nan nan nan nan nan nan nan nan nan nan nan nan nan
nan nan nan nan nan nan nan 283 283 283 281 274 261 243 238 239 246 254 258 263 270 264 nan nan nan nan nan nan nan nan nan nan nan nan nan nan nan nan nan nan nan nan nan nan nan nan nan nan nan nan nan nan nan nan nan nan nan nan nan nan nan nan nan
nan nan nan nan nan nan nan nan nan 278 278 275 261 241 235 234 237 242 246 247 258 268 262 nan nan nan nan nan nan nan nan nan nan nan nan nan nan nan nan nan nan nan nan nan nan nan nan nan nan nan nan nan nan nan nan nan nan nan nan nan nan nan nan
nan nan nan nan nan nan nan nan nan nan 276 270 263 248 234 236 235 236 237 235 241 261 258 nan nan nan nan nan nan nan nan nan nan nan nan nan nan nan nan nan nan nan nan nan nan nan nan nan nan nan nan nan nan nan nan nan nan nan nan nan nan nan nan
nan nan nan nan nan nan nan nan nan nan 276 267 258 246 232 231 233 234 235 236 234 241 254 247 nan nan nan nan nan nan nan nan nan nan nan nan nan nan nan nan nan nan nan nan nan nan nan nan nan nan nan nan nan nan nan nan nan nan nan nan nan nan nan
nan nan nan nan nan nan nan nan nan nan 286 270 252 244 235 225 228 234 235 231 232 231 239 246 255 259 nan nan nan nan nan nan nan nan nan nan nan nan nan nan nan nan nan nan nan nan nan nan nan nan nan nan nan nan nan nan nan nan nan nan nan nan nan
nan nan nan nan nan nan nan nan nan nan nan 275 259 242 234 227 222 229 236 234 225 227 232 238 251 252 nan nan nan nan nan nan nan nan nan nan nan nan nan nan nan nan nan nan nan nan nan nan nan nan nan nan nan nan nan nan nan nan nan nan nan nan nan
nan nan nan nan nan nan nan nan nan nan nan nan 259 239 231 224 218 221 231 236 231 228 229 230 241 246 248 nan nan nan nan nan nan nan nan nan nan nan nan nan nan nan nan nan nan nan nan nan nan nan nan nan nan nan nan nan nan nan nan nan nan nan nan
nan nan nan nan nan nan nan nan nan nan nan nan nan nan nan nan nan nan 223 232 237 229 223 227 228 248 248 236 nan nan nan nan nan nan nan nan nan nan nan nan nan nan nan nan nan nan nan nan nan nan nan nan nan nan nan nan nan nan nan nan nan nan nan
nan nan nan nan nan nan nan nan nan nan nan nan nan nan nan nan nan nan nan 224 226 229 227 222 222 228 244 nan nan nan nan nan nan nan nan nan nan nan nan nan nan nan nan nan nan nan nan nan nan nan nan nan nan nan nan nan nan nan nan nan nan nan nan
nan nan nan nan nan nan nan nan nan nan nan nan nan nan nan nan nan nan nan nan nan nan nan 221 218 222 226 230 nan nan nan nan nan nan nan nan nan nan nan nan nan nan nan nan nan nan nan nan nan nan nan nan nan nan nan nan nan nan nan nan nan nan nan
nan nan nan nan nan nan nan nan nan nan nan nan nan nan nan nan nan nan nan nan nan nan nan nan 214 216 225 228 233 nan nan nan nan nan nan nan nan nan nan nan nan nan nan nan nan nan nan nan nan nan nan nan nan nan nan nan nan nan nan nan nan nan nan